Wind_Speed
13 13 14 14 15 15 16 17 17 18 19 21 22 23 25 26 27 28 29 31 33 34 36 37 38 39 41 43 44 46 48 50 51 51 50 50 51 52 53 54 56 56 57 58 59 59 60 60 61 62 63 63 65 65 65 66 66 65 64 63 62 62 62 63 63 63 63 65 65 63 61 60 59 57 56 60 64 70 74 75 78 78 74 68 62 57 52 52
12 12 13 14 14 15 16 16 17 19 20 22 23 24 25 27 28 29 30 32 34 35 37 38 39 41 43 44 46 48 50 51 52 52 52 52 53 55 56 58 59 60 60 61 61 62 62 63 63 64 65 65 66 67 67 67 67 66 65 63 62 63 64 65 66 66 66 68 68 65 63 61 59 57 55 58 63 68 72 73 76 76 71 60 54 54 54 54
11 11 12 13 14 15 16 17 18 20 21 22 24 25 26 28 29 30 32 33 35 36 38 39 41 43 45 47 48 50 51 52 53 53 54 56 57 58 60 61 62 62 62 63 64 64 64 65 65 66 66 67 68 69 69 69 69 68 66 64 64 65 65 66 67 68 69 69 68 66 65 63 61 60 58 58 63 66 67 69 72 72 67 57 51 49 49 53
10 11 13 14 15 16 18 18 20 21 22 24 25 26 28 29 30 31 32 34 36 37 38 40 42 44 46 49 51 52 53 54 56 57 58 59 60 60 61 62 63 63 64 64 65 65 66 66 67 67 68 68 69 70 71 71 71 70 68 67 68 68 67 68 68 68 69 70 69 67 67 65 63 62 60 60 64 66 66 66 67 68 65 64 61 55 51 51
11 12 14 15 16 18 19 20 21 22 24 25 26 28 29 30 31 32 33 35 37 38 39 41 43 45 48 50 52 54 55 57 58 59 59 60 60 61 62 63 63 64 64 65 65 66 66 67 68 69 69 70 71 72 73 73 73 72 71 71 72 72 71 71 71 69 70 71 69 68 68 66 64 63 63 63 65 68 68 66 65 65 64 64 63 61 60 58
13 14 15 17 18 20 21 22 22 24 25 26 28 29 30 31 32 33 34 36 38 39 40 42 44 46 48 51 53 55 57 59 59 59 59 59 60 61 62 62 62 62 61 61 61 61 62 63 64 66 67 68 70 72 74 74 74 75 75 75 75 76 75 74 74 73 73 73 71 70 70 67 65 65 65 65 67 69 70 68 67 66 64 63 61 61 62 65
14 15 17 18 20 21 22 23 24 25 26 28 29 30 31 32 33 34 35 37 38 39 40 42 45 47 50 53 54 56 58 59 59 58 59 60 61 62 62 60 56 53 51 50 50 50 50 52 53 55 56 58 61 64 67 69 71 73 75 77 78 77 77 78 78 77 76 76 76 75 74 71 67 67 67 67 68 70 72 71 70 69 67 64 62 61 61 64
16 17 18 19 21 22 24 25 26 27 28 29 30 31 32 33 34 35 36 37 39 39 41 43 46 48 51 54 57 58 59 60 59 59 60 61 61 61 58 52 46 43 41 41 41 40 40 42 43 44 45 47 49 51 54 56 59 61 65 68 71 72 74 77 78 79 80 81 81 79 76 74 71 69 68 69 69 70 73 73 72 72 70 67 64 63 63 64
17 17 19 20 22 23 25 26 28 29 29 30 31 32 33 34 34 36 37 38 39 40 41 44 46 49 52 55 58 60 60 61 60 59 60 61 61 59 52 45 41 38 37 36 35 35 34 35 37 38 39 41 43 44 46 48 49 51 53 56 58 60 62 66 69 73 78 82 84 82 79 77 75 73 70 70 71 72 73 74 74 75 73 72 70 66 65 65
18 19 20 21 22 24 26 27 29 30 30 31 32 33 34 34 35 36 37 39 40 40 42 45 47 49 53 56 59 61 62 62 60 59 59 60 60 53 45 39 37 36 34 31 30 29 29 30 30 31 32 34 36 37 40 42 43 45 47 48 51 52 52 53 56 61 66 73 78 78 78 79 78 76 72 72 74 75 76 77 78 79 78 77 75 72 69 66
19 20 21 22 24 25 26 28 29 30 31 31 32 34 34 35 36 37 38 39 40 41 43 45 47 50 54 57 60 62 63 63 61 59 59 60 57 47 40 36 34 33 31 29 28 29 29 30 30 30 31 31 32 33 35 36 36 38 39 40 43 46 49 49 50 52 55 62 66 68 70 74 77 76 74 75 77 80 81 81 82 83 83 82 80 77 73 70
20 22 23 24 25 26 27 28 29 30 30 31 33 34 35 35 36 37 38 40 40 42 44 46 48 51 55 58 61 62 64 64 61 60 60 61 55 44 38 33 30 29 29 28 28 29 29 30 31 31 32 33 33 34 35 36 36 38 39 38 37 39 43 45 47 49 51 57 61 60 60 65 72 76 77 79 81 83 85 85 85 86 86 85 83 80 75 71
22 23 24 25 26 27 28 28 29 29 30 31 33 34 35 36 37 37 39 40 41 42 44 46 49 52 56 59 62 63 64 63 60 59 60 59 52 43 36 32 28 25 26 28 28 28 28 29 30 30 30 30 31 32 33 35 36 37 39 39 38 37 38 39 42 46 50 56 59 58 57 60 66 71 75 79 83 87 88 87 86 86 86 86 85 82 78 73
23 24 25 26 27 28 28 28 29 29 30 31 32 34 35 36 37 38 39 40 40 42 44 47 50 54 56 60 62 64 65 63 60 58 59 57 49 41 35 30 28 24 23 26 26 26 27 27 28 27 26 25 26 28 29 30 31 32 34 35 34 34 34 35 37 40 46 51 55 55 56 60 63 65 69 74 80 86 88 88 87 87 87 87 87 85 81 77
24 25 26 27 27 28 28 28 29 30 30 31 32 34 35 36 37 38 39 39 40 42 44 47 51 55 57 60 63 65 65 63 60 58 58 55 46 39 33 27 26 25 23 24 24 25 26 25 24 23 22 21 21 22 22 23 24 24 26 27 28 27 27 29 31 33 37 43 47 49 52 58 62 64 68 70 75 81 85 87 88 88 88 88 87 86 84 80
25 26 27 28 28 28 28 28 29 30 30 31 32 34 35 36 37 38 39 39 40 42 44 48 51 55 58 61 64 66 65 63 60 58 57 55 45 37 31 25 23 24 24 24 24 25 25 23 21 20 19 18 17 16 16 15 16 16 17 18 19 19 19 20 22 24 27 31 35 39 46 54 59 62 66 69 73 76 80 84 87 88 89 89 88 87 85 83
26 27 28 29 29 29 28 28 29 30 31 31 32 34 35 36 36 37 38 39 41 42 45 48 52 55 58 61 65 67 65 63 60 58 57 55 46 36 31 25 22 23 24 25 25 25 23 20 18 17 16 16 15 13 12 11 10 10 10 10 10 11 11 11 13 15 18 20 23 28 36 45 50 54 59 64 69 72 75 79 83 87 89 90 90 89 87 85
27 28 29 30 30 29 28 28 29 30 31 31 31 33 35 36 36 37 37 38 40 42 46 50 52 55 58 62 65 66 65 62 60 58 56 56 48 38 31 25 21 21 23 25 24 22 20 18 16 15 15 15 14 14 12 11 10 10 10 10 10 9 8 6 7 8 10 12 15 20 26 32 36 39 45 52 59 66 72 75 78 81 86 88 89 90 89 87
28 29 29 30 31 30 29 29 29 31 32 32 32 33 35 37 37 38 37 38 40 42 46 50 54 56 57 61 64 66 65 61 59 57 55 54 48 39 32 25 22 21 21 22 21 19 18 17 16 15 14 14 14 13 13 12 12 12 12 13 13 14 13 11 9 6 5 7 10 13 17 21 24 28 32 37 44 52 61 69 73 76 79 82 84 87 89 88
29 29 30 31 31 31 30 30 30 31 32 33 33 34 36 38 39 40 39 40 41 43 45 49 53 55 57 60 64 66 66 62 59 56 54 53 48 40 33 26 21 20 20 21 18 16 15 16 16 16 14 13 13 12 12 12 12 13 13 14 15 16 16 15 14 11 8 6 6 8 10 12 16 20 23 26 31 37 45 54 63 70 74 76 78 82 86 88
30 30 31 31 31 31 31 31 31 32 33 34 35 35 37 39 40 41 41 41 43 44 46 49 52 54 57 61 64 65 65 63 60 56 54 53 49 41 34 27 20 18 19 20 18 15 15 16 17 17 16 15 13 11 11 12 12 13 14 15 15 16 16 17 16 14 12 8 6 4 5 7 9 13 16 20 24 29 35 42 50 58 65 71 73 75 79 82
31 31 32 32 32 32 31 32 32 33 34 34 35 35 36 38 40 41 41 41 43 45 47 51 53 55 57 61 65 65 63 62 60 56 53 53 50 42 34 29 21 17 17 19 17 15 15 16 17 18 18 18 15 12 10 12 13 14 15 16 16 16 16 18 17 16 15 13 9 5 3 3 4 7 9 13 18 23 28 34 41 47 54 61 66 70 73 76
32 32 32 32 32 32 32 32 33 34 35 35 35 35 35 37 39 41 42 42 43 45 48 51 54 56 58 60 64 66 63 61 59 56 53 52 51 44 35 30 23 18 16 17 17 15 14 14 16 18 17 17 16 13 10 10 11 14 15 16 16 17 17 18 19 18 18 18 15 11 9 7 5 4 3 5 10 15 21 26 32 38 43 49 54 60 64 69
33 33 33 33 33 33 33 33 33 34 36 37 37 36 36 37 39 42 44 43 43 45 48 51 54 56 59 62 65 66 64 60 58 56 52 51 51 46 37 32 26 19 16 15 16 15 14 13 15 17 16 15 14 13 11 9 10 12 13 15 17 18 18 19 20 21 21 23 21 18 17 15 13 12 9 5 2 6 11 17 22 27 33 38 43 48 53 58
34 34 34 34 34 34 34 34 35 35 36 38 38 38 37 38 39 41 43 44 43 45 48 52 54 55 58 62 65 66 64 61 58 54 51 50 50 47 39 33 28 22 17 15 15 15 14 13 15 16 15 14 13 12 11 10 11 12 13 16 17 17 17 18 20 22 23 24 24 22 21 21 20 19 17 15 11 7 3 4 10 16 23 29 35 41 45 49
35 35 35 35 35 35 35 35 35 36 37 39 40 40 40 39 39 40 42 44 44 44 47 50 53 54 56 61 64 65 64 62 58 53 50 49 50 47 40 34 31 26 20 16 14 14 14 13 14 16 15 14 12 13 13 10 10 11 13 17 18 17 16 18 19 20 21 22 21 21 21 22 22 21 21 20 18 15 12 8 3 5 11 17 25 32 38 43
36 36 36 36 36 35 36 36 36 36 37 39 41 41 41 39 39 40 42 44 45 44 46 49 53 55 56 60 65 65 63 62 59 54 50 49 49 47 40 34 31 29 24 20 16 14 15 14 15 15 15 15 13 13 14 12 9 9 11 15 17 17 15 15 16 16 17 17 16 17 18 19 20 20 19 19 18 17 14 11 8 4 3 7 13 21 28 35
37 37 37 37 37 36 36 37 37 37 37 38 40 41 41 40 39 40 42 43 45 46 46 49 52 55 57 61 65 65 63 61 57 53 50 49 49 48 42 33 30 29 24 22 19 17 15 14 15 16 15 15 14 13 14 13 10 8 7 13 13 13 12 11 11 11 12 12 12 12 13 15 16 16 15 15 15 15 14 12 10 7 5 4 7 13 20 27
38 38 38 38 38 38 37 37 37 37 38 38 40 41 42 41 40 41 42 43 45 47 48 49 52 56 58 61 64 64 62 59 55 51 49 50 51 49 43 34 30 30 26 22 20 18 17 15 15 16 16 16 14 13 14 13 10 9 5 8 9 8 8 7 7 7 7 9 9 9 10 11 12 12 12 12 12 12 13 13 11 10 8 6 6 8 13 19
39 39 39 38 38 39 39 39 38 38 39 39 40 41 42 42 41 41 41 43 44 46 47 49 52 56 59 62 64 64 62 59 54 49 47 49 51 51 46 35 29 29 28 24 22 20 19 17 16 17 17 16 14 12 13 12 10 9 8 6 4 3 4 5 6 7 8 9 9 9 10 10 11 12 12 11 11 11 11 11 11 11 11 10 8 8 10 13
39 39 39 39 38 38 39 39 39 40 40 40 41 41 40 41 41 41 41 42 43 45 47 49 51 54 59 63 65 64 62 58 52 48 46 47 50 50 48 40 30 28 27 25 24 22 21 19 18 18 17 16 14 12 12 12 8 6 8 9 7 5 3 4 7 9 9 10 11 12 12 13 13 14 13 13 13 12 11 10 10 10 10 11 11 11 10 11
40 40 40 39 38 38 38 39 40 41 41 41 41 40 39 40 41 41 40 41 43 44 46 48 51 53 58 64 65 64 61 56 50 46 44 46 48 47 47 43 34 28 26 24 23 23 22 21 20 19 19 17 14 13 12 11 9 6 6 9 12 13 8 5 7 9 10 10 11 12 12 12 13 14 14 14 14 14 13 11 10 9 10 10 11 12 12 12
40 40 40 40 39 38 38 39 40 42 41 40 40 40 38 38 39 40 40 41 43 44 45 48 51 53 57 62 64 63 59 54 49 45 44 46 47 46 45 43 36 32 28 24 23 22 23 22 20 20 20 19 17 14 12 11 11 10 6 7 11 15 13 10 9 8 8 9 10 11 11 11 10 10 12 13 14 14 14 14 12 11 11 11 10 11 13 13
41 40 40 40 39 39 39 40 42 42 42 40 39 39 37 36 38 39 39 40 41 42 44 48 51 53 57 61 62 61 57 51 47 45 46 47 47 46 44 41 36 33 30 27 24 21 21 21 20 20 20 19 18 16 13 11 13 11 7 5 9 13 13 12 13 11 9 10 10 11 12 12 10 9 9 11 13 14 15 16 15 14 14 14 13 11 12 13
40 40 39 39 39 39 40 42 43 43 42 39 38 37 36 35 36 38 38 40 41 42 44 47 51 53 57 60 59 58 54 48 45 46 48 49 48 46 45 41 35 33 32 29 26 21 19 19 18 17 17 17 16 16 15 13 14 13 10 9 10 13 14 13 13 13 12 11 11 12 14 14 14 12 12 13 14 15 17 18 17 17 17 17 16 14 13 13
39 39 39 40 40 40 41 42 43 42 40 38 36 35 36 35 34 35 37 39 41 42 44 47 50 54 58 60 58 56 52 46 45 47 49 49 48 46 45 43 36 33 32 30 28 22 18 18 16 15 16 16 15 16 17 15 15 15 14 13 12 13 15 15 13 14 14 12 10 13 15 16 17 16 15 15 16 16 17 18 18 19 20 21 21 19 17 15
39 39 40 41 41 42 42 41 41 40 38 36 34 34 35 36 34 33 35 37 39 41 44 47 49 54 59 60 58 55 49 45 45 48 50 51 49 46 45 43 38 35 34 32 30 22 15 17 16 15 16 16 16 17 17 16 15 15 15 16 15 14 14 15 14 14 16 15 12 12 15 16 16 18 18 18 20 20 19 17 18 20 23 25 25 23 20 18
39 39 40 40 41 41 41 40 39 39 36 34 32 31 32 34 35 34 35 37 38 39 43 46 48 53 57 57 56 53 48 45 46 48 51 51 50 47 44 43 39 36 36 33 30 22 12 14 15 14 15 16 16 18 16 15 15 15 15 16 16 17 16 14 13 12 14 17 16 14 14 15 17 19 20 19 19 21 22 21 19 21 23 26 28 26 24 20
38 37 37 37 37 38 38 38 37 37 35 33 31 29 28 30 33 35 35 36 37 39 42 44 48 53 56 55 54 51 46 45 46 49 50 51 51 48 45 44 40 37 36 36 31 21 10 11 13 13 14 15 16 16 15 14 15 16 16 16 18 20 18 15 13 12 13 16 18 17 16 17 20 21 20 17 15 16 21 25 24 24 26 29 30 28 26 23
37 36 35 33 34 35 35 35 35 34 33 32 30 27 26 27 30 33 35 36 37 39 41 44 48 54 55 54 53 50 46 45 47 49 50 49 49 49 47 45 42 37 36 36 31 19 8 8 10 11 13 14 14 14 13 13 14 15 15 15 16 19 19 17 15 14 16 17 18 17 17 19 21 22 20 17 15 15 18 23 26 27 29 33 33 30 27 25
36 35 34 32 32 33 33 33 34 33 31 31 30 27 25 26 28 31 33 34 36 38 41 44 48 54 54 52 52 49 46 45 46 48 50 49 48 47 45 44 43 39 36 36 30 19 8 6 7 9 11 12 13 13 13 12 12 14 16 16 16 16 17 17 15 14 16 18 19 18 18 20 22 23 22 20 18 16 17 21 25 28 32 36 36 33 29 26
37 35 34 33 32 32 32 31 33 32 30 30 30 29 26 25 27 29 31 32 34 37 39 43 48 52 52 51 51 50 46 45 46 48 51 50 47 45 43 43 42 39 37 36 30 18 9 5 5 7 10 12 12 13 14 13 12 14 16 16 16 16 17 17 16 16 17 18 20 21 20 21 22 22 22 23 22 20 20 22 25 28 33 35 36 34 32 30
37 35 34 33 32 32 31 30 30 31 30 29 28 28 27 25 26 28 29 30 32 35 37 41 47 50 49 49 50 50 48 46 46 48 50 50 47 45 43 42 41 39 37 36 30 19 10 7 6 7 9 11 12 13 14 14 14 14 15 16 16 16 17 17 18 19 19 18 20 22 21 22 23 23 23 23 25 25 23 24 26 30 33 35 35 34 33 32
36 35 33 32 32 32 30 29 29 29 28 27 26 26 26 25 26 27 29 30 31 34 36 40 46 49 47 47 48 49 48 47 46 48 50 50 47 45 43 43 42 38 35 34 31 21 13 9 8 8 10 11 11 12 13 14 14 15 16 16 16 16 17 17 17 18 19 19 17 18 20 23 24 24 24 24 26 29 28 28 28 29 33 35 35 35 34 32
36 34 33 32 31 31 30 29 29 27 26 25 24 23 24 26 26 27 29 30 31 33 36 40 45 48 46 45 47 48 48 47 46 47 49 49 47 45 43 43 42 40 35 33 31 25 16 12 11 11 12 12 12 13 14 14 14 15 16 16 17 18 18 18 17 17 19 19 16 15 19 24 26 26 25 24 26 28 30 31 32 32 34 35 36 35 33 30
35 34 33 32 31 30 29 29 29 28 26 24 22 22 23 24 26 27 29 31 31 33 36 40 45 48 46 45 46 48 47 46 45 45 47 48 47 44 42 42 42 41 37 32 30 28 22 15 13 13 13 13 14 14 14 14 14 14 14 16 18 19 19 19 17 16 18 20 17 15 17 22 26 26 24 23 24 26 29 31 33 36 37 38 38 36 32 28
35 33 32 31 29 29 29 29 29 28 27 25 23 22 23 23 24 27 28 30 31 33 35 39 44 47 45 44 46 48 47 45 44 44 44 46 45 42 41 42 42 41 39 34 29 28 26 21 16 15 15 15 15 15 15 14 14 14 13 14 17 20 20 19 17 15 17 19 20 20 21 23 27 27 23 22 24 26 27 29 32 35 36 37 39 37 30 26
34 33 32 30 28 27 27 27 28 27 27 26 23 22 23 22 23 25 27 27 29 32 35 39 43 46 45 43 45 47 47 46 44 43 43 44 43 41 39 40 40 38 37 35 30 26 26 25 20 16 16 16 15 16 17 16 16 15 13 13 16 20 21 20 18 17 18 19 22 26 27 27 28 28 24 21 24 26 26 28 32 33 34 35 36 35 28 24
33 33 32 30 27 26 26 26 26 25 26 25 22 21 23 23 23 25 27 27 29 31 35 38 42 45 45 43 44 46 48 47 45 44 44 45 44 42 38 38 38 36 34 34 32 29 26 26 24 18 16 16 16 17 18 17 17 16 13 12 15 19 21 20 19 19 19 19 21 25 27 28 28 28 24 22 25 27 27 31 34 34 34 35 37 34 28 23
32 32 32 29 27 26 25 25 25 24 25 24 22 21 22 22 22 24 26 28 28 30 34 37 41 44 45 43 42 44 47 47 46 44 44 45 45 43 40 38 39 38 36 34 33 31 28 26 25 20 15 15 16 17 18 18 18 18 15 13 15 17 19 19 18 18 17 17 18 20 23 26 28 29 28 27 27 28 28 33 39 39 36 37 38 36 30 25
30 32 31 29 27 26 25 25 24 23 24 24 22 20 21 22 22 23 25 26 27 29 32 35 39 42 43 42 41 42 45 47 47 45 43 43 45 44 41 39 39 40 38 34 32 32 31 28 26 22 15 14 16 16 17 17 18 19 17 15 15 16 17 17 16 16 16 16 18 21 22 23 26 29 31 32 30 28 28 33 39 42 40 39 39 36 31 25
30 31 31 28 26 26 24 24 24 23 24 25 22 20 21 22 23 23 24 25 26 28 31 34 38 41 42 42 40 41 43 46 47 46 44 42 43 44 42 39 38 38 38 37 34 32 32 30 28 24 15 12 15 15 16 17 18 19 18 17 15 15 15 15 14 13 13 14 16 19 20 21 24 27 30 32 30 29 31 34 37 40 41 40 38 34 29 24
Wind_Direction
268 269 270 271 272 275 278 282 287 292 295 295 295 295 296 298 299 301 304 306 309 310 310 309 308 308 308 308 308 309 310 310 308 306 304 302 301 301 300 299 297 294 292 289 287 285 282 280 277 275 274 273 272 271 270 269 267 266 265 264 262 260 258 257 255 254 253 253 253 252 252 252 252 251 250 249 247 247 247 247 249 250 250 249 248 244 239 238
270 272 273 276 280 283 287 291 295 297 297 297 298 299 300 302 304 306 308 309 311 312 312 312 311 311 310 311 312 314 314 313 311 309 308 307 307 305 304 301 298 296 293 290 287 285 282 280 278 276 274 273 272 271 270 269 268 267 266 264 263 260 258 256 255 254 252 252 252 253 253 252 253 252 250 250 249 248 248 248 249 250 252 252 251 247 241 238
276 279 282 286 290 291 294 297 298 299 299 300 302 303 305 306 308 309 310 311 313 315 315 315 314 313 313 315 317 317 317 315 314 313 312 311 309 307 304 301 298 295 292 289 286 283 281 279 277 275 274 272 271 270 270 269 268 267 266 265 264 261 259 257 256 254 253 253 253 252 252 251 251 252 250 250 251 251 250 249 250 250 249 246 244 243 242 242
287 290 292 294 296 296 297 299 300 301 303 305 307 308 309 309 310 311 312 314 317 319 318 317 316 316 317 319 320 320 320 318 317 316 314 312 309 306 303 300 297 294 291 288 285 282 280 278 276 274 273 272 270 270 269 268 267 267 266 265 263 262 260 259 257 256 255 254 253 252 251 249 249 249 249 249 251 252 251 251 251 251 248 242 239 238 238 241
294 295 297 298 298 298 300 301 304 306 308 309 310 311 311 311 312 313 315 318 321 321 321 319 318 318 320 321 322 323 322 321 319 317 314 311 308 306 303 300 297 294 290 286 283 280 278 276 274 272 271 270 269 268 268 267 267 266 265 264 262 261 259 258 257 256 255 255 254 253 252 250 248 248 248 248 250 252 253 252 251 251 249 246 241 236 232 231
295 297 298 299 300 302 303 305 308 309 311 311 312 312 312 313 314 315 318 321 324 324 322 320 319 320 322 323 324 324 323 322 320 317 314 312 310 307 305 302 298 293 289 285 282 279 277 275 273 272 270 269 267 267 266 266 266 265 264 263 261 260 259 259 258 257 255 255 255 253 252 250 248 248 248 247 249 251 252 252 251 250 249 247 244 238 231 229
296 297 299 300 302 304 305 307 309 310 311 312 313 313 314 315 316 318 321 324 325 324 323 321 321 323 325 325 325 326 324 323 321 319 317 315 313 311 308 304 300 295 290 287 283 281 279 277 275 273 271 269 268 267 266 266 265 264 263 263 262 261 260 259 258 257 256 255 253 252 250 249 247 246 246 246 247 249 251 251 251 251 249 246 244 240 232 228
298 299 301 303 305 306 307 308 309 310 311 312 314 315 316 317 318 320 323 325 326 325 323 321 323 325 326 326 326 327 326 325 324 322 320 318 317 315 312 308 304 299 294 291 289 287 284 282 280 278 276 274 272 271 269 268 267 266 264 263 262 261 260 258 257 256 255 254 253 252 251 250 248 246 245 245 245 246 249 250 250 250 250 247 243 241 235 229
299 301 302 304 306 307 307 308 309 310 311 313 315 316 317 318 320 322 324 326 327 326 324 323 325 327 327 327 327 328 328 328 327 325 323 322 321 320 317 313 308 303 299 296 293 290 287 284 283 282 280 278 277 275 273 272 271 269 268 267 265 263 260 259 257 255 254 253 252 252 251 250 248 246 245 245 244 244 246 248 250 250 249 248 244 240 237 232
301 302 304 305 306 307 308 309 309 310 311 314 316 317 318 319 321 323 325 327 328 326 324 324 327 328 328 328 329 330 331 331 329 327 326 327 326 323 320 315 309 305 303 302 299 297 294 291 289 287 284 281 279 277 275 273 272 271 270 270 269 268 265 261 258 255 254 252 252 251 249 248 247 245 243 242 242 241 242 244 246 247 247 246 244 240 237 233
303 304 305 306 307 307 308 309 310 311 312 314 316 318 319 321 323 324 326 328 328 326 325 326 328 329 329 329 330 332 333 333 331 330 330 331 330 326 322 317 311 310 312 313 313 310 308 305 303 301 298 294 291 288 285 282 280 278 275 271 268 267 266 264 260 256 254 253 252 251 249 248 248 246 243 240 240 241 241 241 242 244 244 245 244 241 238 233
304 305 307 307 308 309 310 311 311 312 313 314 316 318 320 322 324 325 327 328 328 327 326 327 329 330 329 331 332 334 335 335 334 333 334 335 332 329 325 317 313 316 318 318 315 310 308 306 304 302 299 297 295 293 291 290 289 286 284 280 275 270 266 264 262 259 255 252 251 250 247 246 246 244 241 238 239 240 241 241 241 243 245 247 247 245 243 238
305 306 308 309 310 311 312 312 313 313 314 315 317 318 320 323 324 326 328 328 328 327 327 328 329 330 331 332 334 336 337 337 336 336 337 338 334 331 327 318 316 320 317 314 312 308 305 302 300 298 296 295 293 290 287 287 285 283 282 282 280 277 272 266 261 257 253 251 250 249 246 243 243 242 239 237 237 238 239 241 241 243 245 247 248 248 247 244
305 307 309 311 311 312 313 314 314 315 315 316 317 319 321 324 325 326 328 328 327 327 328 329 330 331 332 334 335 337 339 338 338 338 339 340 336 332 328 319 318 321 316 312 310 309 306 303 303 302 300 298 294 290 286 284 282 280 280 280 278 275 273 269 262 255 250 249 248 247 246 243 242 241 239 237 237 238 239 239 240 241 242 243 246 247 247 245
304 307 309 311 313 313 314 316 317 316 316 317 318 320 322 324 325 326 328 328 328 329 329 330 331 333 334 335 337 339 341 340 340 340 341 342 339 333 329 321 316 319 318 314 309 307 305 306 309 308 308 306 301 296 291 288 285 282 280 280 279 275 271 267 263 257 252 249 246 245 244 243 241 239 238 237 236 236 237 238 239 240 240 241 242 244 246 246
304 307 310 312 314 314 315 317 318 318 318 318 319 321 322 325 326 327 328 327 328 330 330 331 333 335 334 336 338 340 342 342 341 341 342 344 342 335 328 320 315 317 318 315 309 306 306 309 313 313 315 315 312 306 301 298 295 291 287 284 284 281 275 269 264 259 254 251 247 244 241 241 240 238 237 236 236 236 235 236 237 238 240 241 241 242 243 244
304 308 310 312 313 314 315 318 320 320 319 319 320 321 322 325 327 328 328 328 330 330 330 333 335 336 336 338 339 341 343 343 342 342 343 345 345 338 331 322 318 317 315 312 309 309 313 319 323 326 332 333 331 328 322 322 323 322 316 309 305 298 288 278 271 266 259 253 246 242 240 241 241 240 239 237 236 237 236 236 236 236 237 238 239 240 241 241
302 307 310 312 313 313 314 317 322 323 321 320 320 321 323 325 327 329 329 328 330 331 332 335 337 337 337 339 340 341 344 344 343 343 344 346 346 342 335 325 318 316 312 311 313 319 328 332 334 336 341 345 349 351 351 354 359 1 360 357 356 352 343 325 303 286 274 262 248 239 240 243 243 243 241 240 238 237 237 237 237 237 237 237 238 239 240 240
300 305 309 311 312 312 313 316 321 324 323 321 321 322 324 326 328 330 330 328 330 332 334 336 337 338 339 339 340 342 343 345 344 344 345 347 347 344 338 326 318 319 316 315 320 329 339 342 345 347 348 354 0 4 8 12 16 18 18 19 22 22 19 13 2 342 308 280 260 249 248 248 245 242 240 240 239 238 237 237 238 238 238 238 238 238 239 239
298 302 306 309 310 311 311 314 319 323 324 324 322 324 326 327 329 331 331 330 331 334 335 337 338 338 338 339 342 343 343 344 345 344 345 348 348 345 340 330 321 322 319 318 324 331 336 341 347 350 352 357 2 8 13 18 22 23 25 26 29 31 31 27 22 12 354 325 291 273 265 260 253 247 241 237 237 237 237 237 237 238 239 239 238 238 238 238
296 300 304 307 309 310 310 313 318 322 324 325 324 325 327 328 329 330 331 331 332 334 335 337 338 338 338 340 343 345 343 344 345 345 345 349 350 346 341 334 323 319 316 314 320 325 328 337 342 344 347 351 354 1 11 18 21 23 25 27 28 31 34 33 29 25 19 8 347 319 284 272 266 260 252 241 235 233 234 234 235 236 238 240 240 240 239 238
294 299 303 305 307 308 309 311 316 320 322 324 324 324 325 327 328 329 331 332 332 333 334 337 338 338 339 342 343 344 345 344 344 345 346 348 351 348 343 337 325 314 312 309 312 316 321 334 338 339 347 352 349 349 4 16 22 25 24 24 23 23 29 34 33 32 35 33 25 21 5 318 290 278 268 256 244 236 234 234 234 235 235 237 238 239 239 239
292 296 300 303 305 306 308 309 313 318 321 322 322 322 323 325 327 329 332 334 333 332 333 336 338 338 340 342 343 344 345 345 344 345 346 348 350 349 344 340 328 312 307 307 307 311 317 329 333 335 348 356 349 344 355 12 25 30 26 21 21 21 25 34 38 41 47 48 42 40 41 33 25 5 315 271 253 244 240 238 238 239 239 239 239 238 238 238
290 294 298 301 303 305 306 307 310 315 319 321 321 321 321 323 327 329 332 334 333 331 333 336 339 340 340 341 344 344 345 346 345 345 346 348 350 349 345 341 334 317 305 304 304 308 313 321 325 330 344 355 350 345 348 3 22 31 30 24 22 23 26 34 43 49 56 58 54 51 53 51 46 43 38 28 318 258 248 244 243 243 243 243 243 242 241 239
288 292 296 299 301 303 305 306 308 312 317 320 321 321 321 323 327 329 331 333 333 332 333 336 339 339 339 341 343 344 344 345 345 345 346 347 349 349 345 341 338 325 308 300 299 301 304 310 314 321 336 346 346 343 342 355 17 29 38 36 31 30 33 42 51 57 61 64 62 60 60 59 56 53 49 45 42 35 5 272 255 250 247 245 244 242 241 239
287 291 294 297 299 302 304 305 307 310 314 319 321 322 323 323 324 326 330 331 332 332 333 335 337 338 339 341 343 344 344 344 345 346 346 347 349 350 346 340 339 332 315 301 295 292 294 299 306 314 328 336 338 340 334 342 9 27 43 47 46 46 47 52 58 62 64 65 66 66 64 62 59 56 54 52 48 47 46 42 14 282 260 253 249 246 244 240
285 290 293 295 297 300 303 304 306 308 311 317 321 321 321 320 319 323 328 330 331 332 332 335 336 337 339 341 343 345 345 344 344 345 346 347 348 351 349 340 337 334 321 305 295 289 288 292 299 309 320 325 332 338 331 330 344 6 42 54 55 55 52 53 57 62 63 64 66 70 70 67 63 57 54 53 51 47 44 42 39 22 308 265 255 250 248 245
285 288 292 295 297 299 301 303 305 307 310 314 317 317 317 318 319 321 326 329 330 331 333 336 337 337 340 343 344 344 344 344 345 345 346 346 347 350 351 343 335 335 325 306 293 286 287 288 292 302 311 316 325 334 328 325 323 330 33 57 57 55 48 42 48 55 62 64 63 68 73 72 67 61 54 51 50 46 38 31 28 19 359 304 267 255 248 246
284 287 291 294 297 299 301 303 304 306 309 311 314 315 316 318 321 322 324 328 330 331 333 336 337 337 340 343 344 343 343 344 345 346 346 346 346 348 351 347 335 334 331 315 297 287 284 282 284 293 301 306 313 321 322 318 310 310 1 54 56 53 43 32 32 34 41 54 53 52 63 67 64 61 54 46 46 47 39 27 19 12 0 337 298 275 260 250
283 287 290 293 296 299 301 303 305 306 308 311 314 316 317 320 321 320 322 328 330 331 333 336 338 338 339 342 343 343 344 344 346 347 347 346 345 345 348 350 339 332 332 322 305 289 283 279 277 282 287 294 302 307 312 308 305 320 340 3 27 46 35 12 5 3 6 22 28 25 32 42 45 45 42 34 29 33 38 31 21 13 4 348 327 304 284 266
283 286 289 291 294 297 300 303 305 307 310 314 315 317 319 319 318 318 322 326 329 330 333 337 339 339 339 341 343 343 344 345 346 347 348 347 345 343 344 347 342 333 332 325 309 292 282 280 278 280 282 288 297 299 297 292 288 312 323 319 312 309 349 360 348 352 360 6 11 13 19 27 30 30 30 25 19 16 18 23 21 16 9 357 343 328 312 292
282 285 288 290 293 296 299 302 304 307 310 313 315 316 317 315 315 319 322 324 328 331 334 336 338 340 341 341 342 342 343 344 345 348 350 348 346 343 342 343 342 336 333 327 313 293 280 278 278 279 282 285 289 288 279 269 256 250 276 307 317 315 324 341 338 346 355 355 358 4 13 24 28 29 29 23 17 12 5 3 6 6 2 356 347 336 325 313
281 284 286 289 292 295 298 300 302 305 308 312 314 314 312 313 316 318 320 324 329 332 334 336 338 340 342 341 341 341 343 345 345 347 351 350 347 344 342 342 339 336 333 328 318 296 277 273 272 272 275 277 281 277 266 248 233 235 259 309 318 309 306 311 316 326 336 337 345 354 1 11 20 29 34 27 17 9 360 353 349 351 351 345 339 332 326 320
281 283 286 289 291 294 297 300 302 305 308 312 313 310 309 314 316 317 321 326 329 332 334 336 338 340 342 342 340 340 343 346 346 348 351 351 348 344 343 344 339 334 332 329 323 302 274 264 264 265 266 268 272 273 271 255 233 230 239 267 289 289 285 290 299 307 315 318 327 341 349 353 356 7 21 21 14 4 356 350 343 342 344 339 332 324 318 318
280 283 286 288 290 294 297 300 302 304 307 310 310 310 311 315 317 319 323 326 328 331 334 336 338 340 342 342 341 341 343 346 348 350 352 351 349 345 343 345 341 334 332 328 325 311 278 261 259 260 262 264 266 270 277 269 241 229 229 232 256 276 279 280 286 294 303 308 319 333 342 343 344 353 4 6 2 357 353 349 344 341 340 336 332 326 317 312
280 283 286 288 290 293 296 298 301 303 306 309 310 312 313 313 317 320 322 326 329 332 335 337 338 340 341 342 342 343 344 347 350 351 351 351 350 347 344 345 343 336 333 330 328 316 281 262 264 266 268 270 268 269 274 268 245 231 233 236 244 260 273 282 288 293 299 308 325 334 336 340 344 347 351 351 348 349 350 346 342 344 344 339 334 329 323 314
280 282 285 288 291 294 296 298 300 303 306 310 312 313 313 313 316 319 322 326 330 332 334 337 339 340 341 342 343 344 345 348 351 351 350 350 351 349 345 345 344 339 335 333 331 323 282 258 263 265 266 269 265 265 266 260 247 237 235 240 248 253 263 278 291 302 308 315 330 336 333 337 341 339 339 343 343 342 341 339 343 350 352 347 339 334 328 319
279 282 284 288 291 294 296 299 301 304 307 309 310 312 315 316 316 320 324 327 330 332 335 337 340 341 341 342 343 345 345 348 352 352 350 348 349 350 348 346 346 341 338 337 335 326 284 252 257 257 259 261 256 258 261 255 248 245 242 243 252 260 264 269 280 296 306 310 317 327 330 328 328 331 334 339 342 340 337 337 345 354 354 351 345 338 332 325
279 281 284 287 290 293 295 298 301 304 308 309 309 310 314 316 317 321 325 327 330 333 336 338 340 341 342 343 345 345 345 348 352 352 350 348 348 350 350 348 347 345 341 341 339 329 289 250 253 256 258 256 250 252 258 258 253 252 251 249 254 262 268 269 271 276 285 295 305 317 324 320 321 327 329 330 335 343 343 341 344 350 352 349 343 338 335 331
279 281 284 287 290 293 296 299 302 305 308 309 307 309 312 315 318 320 323 328 331 334 337 339 341 342 342 344 345 345 345 349 352 352 350 349 349 350 350 349 348 348 345 344 343 334 296 249 250 256 261 258 251 249 253 258 261 261 260 259 259 261 264 266 263 262 271 284 296 307 313 312 318 325 325 324 331 341 345 343 343 346 349 345 338 334 333 331
278 281 284 287 291 293 297 301 304 307 309 308 308 311 315 318 317 319 323 329 332 335 339 341 342 343 343 344 345 346 346 349 351 351 350 350 351 350 350 349 348 349 349 349 347 340 311 264 254 261 267 266 256 248 247 250 255 260 264 267 266 264 265 266 262 261 271 282 290 299 305 306 315 326 324 321 326 333 338 340 342 346 347 341 333 330 329 327
275 279 282 287 289 293 298 302 305 308 309 309 311 312 315 316 315 318 325 330 333 337 340 341 342 344 344 344 344 346 348 349 349 351 351 350 351 351 351 351 350 349 351 352 351 346 328 296 279 274 275 275 263 249 245 248 248 252 260 266 268 267 269 273 274 276 278 284 292 300 304 305 313 323 320 317 321 326 332 337 341 346 345 337 329 326 326 323
271 275 280 284 287 291 297 302 305 307 309 309 310 309 310 312 314 319 325 329 334 338 341 341 343 345 344 344 345 347 349 349 349 351 351 350 351 351 352 353 352 351 351 352 353 351 340 323 309 294 287 284 272 255 248 248 248 251 258 265 269 268 269 270 273 276 278 281 290 297 302 304 311 319 316 314 319 324 331 338 340 343 340 332 326 323 321 318
267 272 277 281 285 289 295 300 303 305 306 305 305 305 307 310 315 321 325 330 336 340 341 342 344 345 345 345 347 348 349 350 350 350 351 351 350 351 353 354 353 354 352 352 353 354 346 330 320 311 305 301 289 270 258 251 250 252 259 265 270 269 267 266 268 273 276 278 283 290 296 300 309 317 315 316 323 327 333 336 334 337 336 330 325 321 316 311
264 269 274 278 282 287 292 297 301 303 303 302 303 305 307 310 316 322 325 331 338 341 341 344 345 345 345 346 349 351 350 350 350 350 351 352 351 352 355 354 353 354 354 352 351 352 347 329 318 315 310 309 303 286 270 259 254 255 258 262 266 268 267 267 269 272 275 277 282 289 294 299 308 315 315 317 324 328 331 332 330 332 333 329 325 320 312 304
261 265 271 277 281 285 290 295 300 304 306 305 305 307 307 310 316 322 327 333 338 340 343 345 346 346 345 348 351 353 352 351 350 350 351 352 352 353 355 356 354 353 353 353 351 349 346 332 316 311 308 307 307 298 286 272 264 262 258 255 258 262 268 272 272 272 274 278 287 294 296 298 304 312 314 312 315 320 326 330 331 331 332 329 326 321 313 303
260 261 266 273 279 284 290 295 301 306 307 306 306 305 305 308 315 321 327 333 336 340 343 345 346 346 346 348 352 354 354 352 351 351 352 354 354 354 355 358 358 353 349 351 351 347 344 336 320 307 303 304 304 304 301 288 277 275 266 253 253 257 264 270 271 268 267 273 284 297 303 300 301 308 311 305 305 314 322 328 330 330 330 329 326 322 316 308
258 259 263 268 274 279 284 290 297 302 302 301 301 302 303 305 311 317 324 330 335 340 344 345 346 347 347 348 351 354 355 354 352 351 353 355 356 356 357 360 360 355 348 345 347 348 344 337 327 310 296 297 301 303 304 296 287 286 278 259 252 256 260 264 266 265 263 267 277 290 299 299 299 306 311 308 307 313 320 325 328 329 330 330 328 325 321 313
255 257 260 266 271 274 278 283 291 296 296 295 296 299 301 302 307 314 322 329 336 341 343 344 346 347 348 349 351 354 356 356 354 353 354 356 357 358 359 0 1 360 353 346 346 348 345 337 332 317 294 291 296 297 299 301 297 296 291 273 259 257 261 265 267 270 273 276 280 288 293 295 298 305 312 317 315 315 322 328 331 334 336 335 334 332 328 320
255 254 257 263 268 272 275 280 288 293 294 293 294 295 297 299 304 314 322 329 336 340 342 343 345 347 348 349 351 354 357 357 356 355 355 357 358 358 359 360 1 3 0 352 346 345 344 341 336 326 300 284 286 289 295 301 302 301 300 288 271 265 267 270 274 277 280 285 290 291 291 296 305 314 320 323 318 316 328 338 338 339 341 340 340 338 334 327
255 253 254 259 266 270 273 278 286 292 293 292 292 293 297 301 305 313 320 327 334 338 340 342 345 347 349 350 351 355 358 359 359 358 357 357 359 360 0 0 1 2 2 359 351 346 345 344 341 333 311 282 278 285 292 298 301 304 305 296 283 275 274 274 276 280 284 290 294 294 295 304 315 320 319 319 318 322 335 344 342 341 342 342 343 342 337 328
253 251 252 255 263 268 271 276 283 289 290 290 291 295 299 302 305 311 318 325 331 335 338 341 344 347 350 351 352 355 359 1 1 360 359 358 359 1 1 1 0 0 1 2 360 352 346 345 345 342 324 286 277 283 291 296 301 306 308 302 295 290 286 281 276 274 277 282 285 289 296 306 312 313 314 316 323 333 339 342 342 342 342 342 344 346 342 330
Height
10744 10744 10744 10743 10743 10742 10741 10741 10740 10740 10739 10738 10737 10736 10735 10733 10732 10730 10729 10727 10725 10723 10720 10717 10714 10710 10707 10704 10702 10699 10696 10691 10686 10682 10678 10674 10670 10666 10662 10658 10654 10651 10648 10645 10642 10639 10637 10635 10634 10632 10630 10629 10627 10626 10627 10626 10627 10628 10631 10636 10639 10641 10641 10642 10642 10644 10645 10642 10642 10648 10651 10654 10656 10662 10667 10664 10661 10654 10651 10653 10648 10651 10664 10677 10690 10701 10708 10709
10743 10742 10742 10741 10741 10740 10739 10739 10738 10737 10737 10736 10735 10733 10732 10730 10729 10727 10726 10724 10722 10719 10716 10713 10709 10706 10702 10699 10697 10693 10690 10684 10679 10675 10671 10667 10662 10658 10654 10650 10646 10642 10639 10636 10632 10629 10627 10625 10623 10622 10620 10619 10617 10617 10617 10616 10617 10619 10622 10626 10629 10630 10630 10630 10631 10633 10634 10632 10635 10642 10645 10648 10651 10654 10659 10656 10651 10646 10644 10647 10646 10649 10661 10676 10692 10700 10704 10705
10741 10741 10740 10739 10739 10738 10737 10737 10736 10735 10734 10733 10732 10730 10729 10727 10726 10724 10722 10720 10718 10715 10712 10709 10705 10701 10697 10694 10691 10688 10683 10678 10673 10668 10664 10659 10654 10650 10646 10641 10637 10633 10630 10626 10622 10619 10617 10615 10613 10611 10610 10609 10608 10607 10606 10606 10607 10609 10612 10617 10618 10618 10619 10620 10622 10622 10623 10624 10628 10635 10637 10641 10644 10645 10650 10649 10643 10639 10639 10641 10642 10647 10659 10674 10689 10697 10701 10702
10739 10739 10738 10738 10737 10736 10735 10735 10734 10733 10732 10730 10729 10727 10726 10724 10723 10721 10719 10717 10714 10711 10708 10704 10701 10697 10693 10689 10685 10682 10677 10671 10666 10661 10656 10651 10647 10642 10637 10633 10628 10624 10620 10615 10612 10609 10606 10605 10603 10601 10600 10599 10597 10596 10596 10596 10597 10600 10604 10606 10606 10606 10609 10610 10611 10613 10614 10615 10619 10626 10627 10632 10637 10638 10642 10643 10637 10632 10632 10635 10637 10641 10651 10664 10678 10688 10694 10694
10738 10737 10737 10736 10735 10734 10733 10732 10731 10730 10729 10727 10726 10724 10723 10721 10720 10718 10716 10713 10711 10707 10704 10700 10696 10693 10689 10684 10680 10676 10671 10665 10660 10655 10649 10644 10639 10634 10629 10623 10618 10613 10608 10604 10601 10598 10596 10593 10592 10590 10589 10588 10587 10586 10585 10585 10587 10590 10593 10594 10594 10594 10597 10598 10600 10604 10605 10605 10610 10616 10618 10623 10631 10632 10634 10635 10630 10626 10625 10628 10631 10635 10641 10651 10663 10674 10680 10682
10736 10735 10735 10734 10733 10732 10731 10730 10729 10727 10726 10725 10723 10722 10720 10718 10716 10715 10712 10710 10707 10704 10700 10696 10692 10689 10685 10680 10676 10672 10666 10660 10654 10648 10643 10637 10632 10626 10619 10613 10607 10602 10596 10592 10589 10587 10585 10582 10580 10579 10579 10578 10576 10575 10574 10575 10578 10579 10580 10581 10581 10582 10586 10588 10589 10593 10594 10596 10601 10605 10607 10614 10623 10624 10625 10627 10625 10620 10618 10620 10622 10626 10632 10638 10649 10658 10668 10674
10734 10733 10733 10732 10731 10730 10728 10727 10726 10725 10724 10722 10721 10719 10717 10715 10713 10711 10709 10706 10703 10700 10696 10692 10688 10684 10680 10675 10671 10666 10660 10654 10649 10642 10635 10629 10623 10616 10609 10602 10596 10591 10586 10582 10579 10577 10575 10573 10571 10569 10569 10568 10567 10566 10565 10566 10567 10568 10567 10567 10568 10572 10576 10577 10578 10581 10584 10586 10588 10591 10596 10604 10612 10615 10617 10620 10619 10614 10611 10612 10613 10616 10621 10628 10636 10644 10655 10665
10732 10731 10730 10730 10729 10727 10726 10725 10724 10722 10721 10720 10718 10716 10714 10712 10710 10708 10706 10703 10700 10697 10693 10689 10684 10680 10676 10670 10665 10661 10655 10648 10642 10635 10628 10621 10614 10606 10598 10592 10587 10582 10578 10575 10572 10571 10569 10566 10564 10563 10562 10561 10559 10559 10558 10557 10558 10558 10557 10556 10557 10560 10563 10564 10567 10569 10572 10573 10574 10580 10588 10594 10601 10606 10610 10613 10613 10610 10604 10604 10605 10606 10610 10618 10625 10632 10640 10649
10730 10729 10729 10728 10727 10725 10724 10722 10721 10720 10718 10717 10715 10713 10711 10709 10707 10705 10702 10700 10696 10693 10689 10685 10681 10676 10671 10666 10660 10655 10649 10642 10635 10628 10621 10613 10605 10596 10589 10584 10579 10575 10572 10570 10568 10566 10564 10562 10559 10558 10557 10555 10553 10553 10552 10551 10551 10550 10549 10548 10547 10549 10551 10552 10555 10557 10559 10560 10560 10568 10578 10582 10588 10596 10604 10607 10606 10604 10599 10597 10597 10597 10601 10606 10613 10621 10628 10635
10728 10727 10727 10726 10725 10723 10722 10720 10719 10717 10715 10714 10712 10710 10708 10706 10704 10702 10699 10696 10693 10689 10686 10681 10678 10673 10667 10662 10655 10649 10642 10636 10629 10622 10615 10607 10598 10590 10584 10579 10574 10570 10568 10567 10564 10562 10560 10558 10555 10554 10553 10551 10549 10548 10546 10545 10545 10544 10543 10542 10540 10539 10541 10544 10545 10546 10548 10548 10548 10556 10565 10569 10574 10584 10596 10599 10594 10593 10592 10591 10588 10587 10590 10594 10600 10608 10616 10624
10726 10725 10724 10723 10722 10721 10720 10718 10716 10714 10713 10711 10709 10707 10705 10703 10701 10699 10696 10693 10689 10686 10682 10678 10674 10669 10664 10658 10651 10644 10637 10629 10622 10615 10608 10600 10592 10586 10581 10575 10570 10566 10564 10563 10560 10558 10556 10553 10551 10550 10548 10546 10545 10543 10540 10540 10539 10537 10536 10536 10535 10533 10533 10534 10536 10537 10539 10538 10539 10546 10555 10561 10565 10575 10589 10588 10582 10581 10581 10582 10580 10577 10579 10582 10587 10595 10604 10613
10724 10723 10722 10721 10720 10719 10717 10715 10714 10712 10710 10708 10706 10705 10702 10700 10698 10696 10693 10689 10686 10682 10678 10674 10670 10666 10660 10654 10647 10640 10632 10624 10616 10609 10601 10593 10585 10580 10577 10572 10569 10565 10561 10560 10558 10556 10553 10551 10548 10546 10544 10542 10541 10538 10536 10534 10534 10531 10529 10529 10529 10528 10527 10527 10528 10529 10531 10530 10530 10537 10547 10554 10554 10560 10571 10572 10569 10569 10568 10571 10572 10571 10572 10573 10577 10585 10594 10604
10723 10722 10720 10719 10718 10716 10715 10713 10711 10709 10708 10706 10704 10702 10700 10698 10695 10693 10690 10686 10683 10679 10675 10670 10666 10662 10656 10649 10643 10636 10628 10620 10613 10605 10597 10589 10581 10576 10573 10568 10566 10564 10561 10558 10556 10554 10551 10549 10546 10544 10542 10540 10537 10535 10532 10530 10529 10527 10524 10523 10523 10522 10521 10521 10521 10521 10521 10520 10521 10528 10538 10542 10540 10544 10552 10556 10557 10556 10557 10562 10565 10568 10569 10568 10569 10575 10585 10594
10721 10720 10718 10717 10715 10714 10712 10711 10709 10707 10705 10703 10701 10699 10697 10695 10692 10690 10687 10683 10679 10676 10671 10667 10662 10657 10652 10645 10639 10632 10624 10616 10609 10602 10595 10587 10579 10574 10570 10565 10562 10562 10561 10557 10554 10552 10550 10547 10544 10541 10539 10537 10534 10532 10529 10527 10525 10523 10520 10518 10518 10517 10515 10514 10513 10512 10512 10512 10514 10521 10528 10529 10529 10534 10539 10543 10545 10545 10549 10554 10557 10560 10562 10563 10564 10567 10575 10584
10719 10718 10716 10715 10713 10712 10710 10708 10707 10705 10703 10701 10698 10696 10694 10692 10689 10687 10684 10680 10676 10672 10668 10664 10659 10653 10647 10641 10635 10628 10620 10612 10605 10598 10592 10585 10578 10572 10568 10564 10560 10559 10558 10556 10553 10551 10549 10545 10542 10539 10537 10535 10532 10529 10526 10524 10522 10520 10517 10514 10513 10512 10511 10508 10507 10506 10505 10506 10508 10513 10517 10516 10518 10523 10526 10530 10533 10535 10540 10544 10547 10550 10553 10557 10560 10563 10568 10575
10717 10716 10714 10713 10711 10709 10708 10706 10704 10702 10700 10698 10696 10693 10691 10689 10687 10684 10681 10677 10673 10669 10665 10661 10656 10650 10644 10637 10629 10623 10617 10608 10601 10595 10589 10583 10577 10571 10566 10563 10559 10557 10555 10554 10551 10549 10547 10544 10541 10538 10535 10532 10530 10527 10524 10521 10519 10517 10514 10512 10509 10508 10507 10504 10502 10501 10500 10501 10503 10506 10507 10504 10506 10511 10515 10519 10521 10524 10529 10535 10539 10543 10546 10549 10553 10557 10562 10567
10715 10714 10712 10711 10709 10707 10706 10704 10702 10700 10698 10696 10694 10691 10688 10686 10684 10681 10678 10674 10670 10667 10662 10658 10653 10647 10640 10633 10625 10618 10613 10605 10597 10591 10585 10580 10574 10569 10564 10561 10558 10555 10553 10551 10549 10546 10544 10541 10538 10535 10533 10530 10527 10525 10522 10519 10517 10514 10512 10509 10507 10505 10504 10502 10500 10498 10497 10497 10498 10499 10498 10496 10499 10503 10507 10511 10514 10517 10521 10525 10528 10532 10535 10538 10542 10548 10554 10560
10713 10712 10710 10709 10707 10705 10703 10702 10700 10698 10695 10693 10691 10688 10685 10683 10681 10679 10675 10671 10668 10664 10659 10653 10649 10643 10636 10629 10623 10616 10610 10604 10596 10589 10582 10576 10571 10566 10562 10558 10556 10554 10552 10549 10546 10543 10541 10539 10536 10534 10531 10528 10526 10523 10520 10517 10515 10512 10510 10508 10505 10503 10501 10500 10498 10496 10495 10494 10494 10493 10492 10492 10495 10499 10502 10504 10507 10510 10513 10516 10519 10523 10525 10529 10534 10539 10544 10550
10711 10710 10709 10707 10705 10703 10701 10700 10698 10696 10693 10690 10688 10686 10683 10680 10678 10675 10673 10669 10666 10662 10656 10649 10644 10640 10634 10627 10621 10613 10607 10602 10595 10588 10582 10575 10568 10564 10560 10556 10554 10552 10550 10547 10544 10541 10539 10537 10535 10533 10530 10528 10525 10522 10519 10517 10514 10511 10509 10507 10504 10502 10500 10498 10496 10495 10494 10492 10491 10490 10489 10490 10491 10493 10496 10498 10500 10503 10506 10508 10511 10514 10517 10521 10527 10531 10535 10541
10709 10708 10707 10705 10703 10701 10699 10697 10696 10694 10691 10688 10685 10683 10680 10676 10673 10671 10668 10665 10661 10658 10653 10649 10643 10637 10632 10627 10620 10611 10602 10598 10593 10586 10580 10574 10567 10562 10559 10555 10552 10549 10548 10546 10543 10541 10539 10537 10535 10532 10530 10527 10525 10522 10519 10516 10514 10511 10509 10506 10504 10502 10499 10497 10495 10494 10492 10491 10490 10489 10488 10487 10487 10488 10490 10492 10494 10496 10498 10501 10503 10506 10508 10512 10517 10521 10525 10531
10707 10706 10705 10703 10701 10699 10697 10695 10693 10691 10689 10686 10683 10680 10677 10673 10670 10667 10664 10661 10657 10654 10650 10647 10642 10636 10630 10623 10616 10610 10601 10593 10589 10583 10577 10572 10566 10561 10556 10553 10550 10548 10547 10544 10542 10540 10538 10537 10535 10532 10530 10527 10524 10521 10519 10516 10514 10511 10509 10507 10504 10502 10500 10497 10495 10493 10491 10490 10489 10488 10487 10486 10485 10485 10486 10487 10489 10490 10492 10493 10495 10497 10500 10504 10508 10512 10516 10520
10704 10703 10702 10701 10699 10697 10695 10693 10691 10689 10687 10684 10681 10678 10675 10671 10668 10665 10662 10659 10654 10650 10646 10642 10638 10633 10627 10620 10612 10608 10602 10593 10586 10581 10575 10569 10564 10559 10555 10551 10548 10547 10545 10544 10541 10539 10538 10536 10534 10532 10529 10526 10524 10521 10518 10516 10513 10511 10509 10507 10504 10502 10500 10497 10495 10493 10491 10489 10488 10487 10486 10485 10485 10484 10484 10484 10485 10486 10487 10488 10489 10491 10493 10495 10498 10502 10506 10510
10702 10701 10700 10698 10697 10695 10693 10691 10689 10687 10684 10682 10679 10677 10674 10670 10667 10662 10659 10656 10652 10647 10643 10640 10635 10629 10623 10619 10612 10605 10600 10593 10585 10579 10573 10567 10562 10558 10554 10550 10547 10545 10544 10542 10540 10538 10537 10535 10533 10531 10528 10526 10524 10522 10519 10516 10513 10511 10508 10506 10504 10502 10500 10498 10495 10493 10491 10489 10488 10487 10485 10484 10484 10483 10483 10483 10483 10483 10484 10485 10487 10488 10489 10490 10492 10495 10498 10501
10699 10698 10697 10696 10694 10692 10691 10688 10686 10684 10682 10679 10676 10674 10671 10668 10664 10660 10656 10653 10650 10645 10641 10636 10632 10625 10619 10614 10609 10601 10596 10591 10584 10577 10571 10566 10560 10556 10552 10549 10546 10543 10541 10540 10538 10537 10535 10533 10532 10530 10527 10525 10523 10521 10519 10517 10514 10511 10508 10506 10504 10503 10501 10498 10496 10494 10491 10490 10489 10487 10486 10484 10483 10482 10482 10482 10482 10482 10482 10483 10484 10485 10486 10488 10489 10491 10494 10496
10696 10695 10694 10693 10691 10689 10688 10686 10684 10681 10679 10676 10674 10671 10668 10665 10662 10658 10654 10650 10648 10643 10638 10633 10629 10624 10617 10611 10606 10600 10593 10589 10584 10577 10570 10565 10559 10554 10549 10547 10544 10541 10539 10538 10537 10535 10533 10532 10530 10529 10527 10524 10522 10521 10519 10516 10514 10511 10508 10506 10505 10503 10502 10499 10496 10494 10492 10491 10490 10488 10487 10485 10483 10482 10482 10481 10480 10480 10480 10480 10481 10481 10482 10483 10483 10485 10486 10489
10693 10692 10690 10689 10688 10687 10685 10683 10681 10679 10676 10673 10671 10668 10665 10662 10660 10657 10653 10649 10645 10642 10636 10631 10627 10624 10618 10611 10605 10598 10591 10584 10580 10575 10569 10563 10558 10553 10548 10543 10541 10538 10536 10535 10534 10533 10532 10530 10529 10527 10525 10523 10522 10520 10518 10516 10514 10511 10508 10506 10504 10503 10502 10500 10497 10495 10493 10491 10490 10489 10487 10486 10484 10483 10482 10481 10480 10480 10479 10479 10479 10478 10478 10479 10479 10479 10480 10482
10690 10688 10687 10686 10685 10684 10683 10681 10679 10677 10674 10671 10668 10665 10663 10661 10658 10655 10651 10647 10643 10640 10636 10631 10625 10620 10616 10609 10601 10594 10588 10582 10576 10571 10567 10561 10556 10552 10548 10543 10539 10536 10533 10531 10531 10531 10530 10528 10527 10525 10523 10522 10521 10519 10517 10515 10514 10512 10509 10506 10504 10503 10502 10500 10498 10495 10493 10491 10489 10488 10486 10485 10484 10483 10482 10481 10480 10479 10479 10478 10477 10477 10476 10476 10475 10475 10476 10477
10686 10685 10684 10682 10681 10681 10680 10678 10676 10674 10672 10670 10667 10664 10661 10658 10655 10651 10649 10645 10640 10636 10633 10629 10622 10616 10612 10606 10599 10592 10587 10581 10574 10568 10563 10558 10553 10550 10546 10542 10538 10535 10532 10529 10528 10527 10527 10525 10524 10523 10522 10521 10519 10517 10516 10515 10513 10512 10509 10506 10504 10502 10501 10500 10498 10495 10492 10490 10488 10486 10485 10483 10482 10481 10480 10479 10479 10478 10477 10476 10476 10475 10474 10473 10473 10472 10472 10472
10683 10682 10681 10679 10678 10677 10676 10675 10673 10671 10669 10667 10664 10661 10657 10655 10652 10648 10646 10642 10637 10632 10628 10625 10619 10612 10607 10603 10598 10592 10586 10580 10574 10567 10560 10555 10550 10547 10545 10541 10536 10532 10530 10527 10525 10524 10523 10523 10521 10520 10520 10519 10518 10516 10514 10513 10512 10511 10508 10506 10504 10502 10500 10499 10497 10494 10491 10489 10487 10485 10483 10482 10480 10479 10478 10477 10476 10476 10475 10475 10474 10473 10472 10471 10470 10470 10469 10468
10680 10679 10677 10676 10675 10673 10672 10671 10669 10668 10666 10664 10661 10657 10654 10651 10648 10646 10643 10639 10634 10630 10626 10622 10617 10610 10604 10600 10595 10589 10584 10577 10572 10567 10560 10553 10547 10542 10541 10540 10535 10530 10527 10524 10522 10521 10520 10519 10519 10518 10518 10517 10516 10514 10513 10512 10510 10509 10506 10505 10504 10502 10500 10498 10496 10494 10492 10489 10487 10485 10483 10481 10480 10479 10478 10476 10475 10474 10473 10473 10472 10471 10469 10468 10467 10466 10465 10464
10676 10675 10674 10673 10672 10670 10669 10667 10665 10664 10662 10660 10657 10654 10651 10648 10646 10643 10640 10637 10633 10628 10623 10620 10616 10609 10602 10596 10591 10585 10580 10574 10569 10565 10560 10554 10547 10540 10536 10536 10534 10529 10526 10522 10519 10517 10517 10516 10515 10515 10515 10515 10514 10513 10511 10510 10509 10507 10505 10504 10503 10501 10499 10498 10496 10494 10492 10490 10488 10486 10484 10482 10480 10479 10478 10477 10475 10474 10472 10471 10469 10468 10467 10466 10464 10462 10461 10460
10673 10672 10671 10670 10669 10668 10666 10664 10662 10660 10659 10657 10654 10651 10649 10647 10643 10640 10637 10635 10631 10626 10621 10617 10613 10608 10601 10593 10587 10583 10578 10573 10567 10564 10559 10553 10547 10540 10534 10532 10530 10528 10525 10521 10517 10514 10513 10513 10512 10512 10511 10511 10511 10511 10510 10508 10507 10506 10505 10503 10501 10499 10498 10498 10496 10495 10493 10491 10488 10487 10485 10483 10481 10479 10478 10477 10475 10474 10472 10470 10468 10466 10464 10463 10462 10460 10458 10457
10669 10669 10668 10666 10665 10664 10663 10661 10660 10658 10656 10655 10652 10649 10647 10645 10641 10638 10635 10631 10628 10623 10619 10615 10610 10606 10601 10593 10585 10580 10576 10570 10565 10561 10557 10552 10546 10540 10534 10529 10526 10524 10522 10519 10516 10512 10510 10510 10509 10509 10509 10508 10508 10508 10508 10507 10506 10505 10504 10502 10501 10499 10497 10497 10496 10495 10493 10491 10489 10487 10485 10484 10482 10479 10478 10476 10475 10473 10471 10469 10467 10464 10462 10460 10459 10458 10455 10454
10665 10665 10665 10663 10662 10661 10660 10658 10656 10655 10653 10651 10649 10646 10644 10642 10639 10635 10632 10629 10626 10622 10618 10613 10608 10604 10600 10594 10586 10578 10573 10568 10563 10558 10554 10550 10544 10538 10534 10529 10524 10520 10518 10516 10513 10510 10508 10507 10507 10507 10507 10506 10506 10505 10505 10505 10504 10503 10502 10502 10501 10500 10498 10497 10495 10494 10493 10492 10490 10488 10486 10484 10482 10479 10477 10475 10473 10472 10469 10467 10465 10462 10460 10458 10456 10454 10453 10451
10662 10661 10661 10660 10659 10658 10657 10655 10653 10651 10650 10648 10647 10643 10640 10639 10636 10632 10629 10626 10623 10620 10616 10611 10606 10601 10597 10593 10586 10578 10571 10566 10561 10555 10550 10546 10541 10535 10531 10528 10524 10519 10515 10512 10509 10507 10504 10504 10505 10505 10505 10504 10503 10502 10502 10502 10502 10501 10501 10501 10500 10498 10497 10496 10495 10493 10492 10490 10489 10487 10485 10483 10481 10478 10476 10473 10472 10470 10468 10466 10463 10460 10457 10455 10453 10451 10450 10448
10658 10658 10657 10657 10656 10655 10654 10652 10650 10648 10647 10645 10643 10640 10636 10635 10634 10630 10627 10624 10620 10616 10613 10609 10604 10599 10593 10588 10583 10576 10569 10564 10559 10553 10548 10544 10540 10534 10528 10524 10521 10517 10513 10509 10506 10503 10500 10499 10500 10501 10501 10501 10501 10500 10499 10499 10499 10499 10499 10499 10499 10497 10496 10495 10494 10492 10490 10489 10488 10486 10484 10482 10479 10477 10475 10473 10470 10469 10467 10464 10461 10458 10455 10453 10451 10449 10447 10445
10654 10654 10653 10653 10652 10651 10650 10648 10647 10645 10643 10641 10639 10637 10633 10631 10631 10629 10626 10623 10620 10615 10610 10607 10602 10596 10590 10584 10578 10573 10567 10562 10557 10551 10545 10541 10537 10533 10526 10521 10518 10514 10510 10506 10502 10499 10497 10496 10496 10497 10498 10498 10498 10498 10497 10497 10497 10497 10497 10497 10496 10496 10495 10493 10492 10490 10488 10487 10487 10486 10483 10481 10479 10477 10474 10471 10468 10466 10464 10462 10459 10455 10453 10450 10448 10446 10444 10442
10650 10650 10650 10649 10648 10647 10645 10644 10643 10641 10639 10638 10636 10635 10632 10627 10625 10625 10623 10620 10618 10614 10609 10605 10600 10595 10589 10583 10577 10571 10565 10560 10555 10550 10544 10538 10534 10531 10525 10520 10516 10511 10507 10502 10498 10495 10494 10494 10494 10495 10495 10496 10496 10495 10495 10494 10494 10495 10495 10495 10494 10494 10493 10492 10491 10489 10487 10484 10484 10485 10483 10481 10479 10477 10474 10471 10468 10464 10460 10458 10455 10453 10450 10448 10445 10443 10440 10438
10646 10646 10647 10647 10645 10644 10642 10641 10639 10637 10636 10634 10633 10633 10631 10627 10623 10621 10620 10618 10616 10612 10608 10603 10599 10594 10588 10582 10576 10569 10564 10559 10553 10549 10543 10537 10531 10527 10523 10517 10514 10510 10504 10499 10495 10492 10491 10491 10492 10492 10493 10494 10494 10493 10492 10492 10492 10492 10492 10492 10492 10491 10491 10491 10490 10489 10487 10484 10483 10482 10481 10480 10478 10477 10474 10471 10468 10464 10460 10455 10452 10449 10447 10445 10442 10439 10437 10434
10641 10642 10642 10643 10643 10641 10639 10638 10636 10635 10633 10631 10630 10629 10629 10626 10622 10619 10618 10616 10613 10609 10606 10601 10596 10590 10584 10579 10574 10568 10562 10557 10552 10547 10543 10537 10530 10523 10519 10515 10511 10508 10503 10498 10493 10490 10489 10489 10490 10490 10491 10491 10491 10491 10490 10490 10489 10490 10490 10490 10490 10489 10488 10489 10489 10488 10486 10484 10482 10480 10479 10478 10477 10476 10473 10470 10466 10463 10459 10455 10450 10446 10443 10440 10438 10436 10433 10430
10637 10638 10638 10639 10639 10637 10636 10635 10632 10631 10630 10628 10626 10625 10625 10623 10621 10619 10616 10614 10611 10607 10603 10599 10594 10588 10582 10576 10572 10567 10561 10556 10551 10546 10541 10536 10529 10523 10518 10514 10509 10505 10501 10496 10492 10489 10488 10488 10488 10489 10489 10489 10489 10489 10488 10488 10488 10488 10488 10488 10487 10487 10486 10486 10486 10486 10485 10483 10480 10479 10478 10476 10475 10473 10471 10467 10464 10461 10458 10454 10449 10444 10440 10437 10434 10431 10428 10426
10633 10634 10634 10635 10634 10633 10633 10632 10630 10628 10627 10625 10623 10621 10622 10621 10619 10617 10615 10613 10609 10605 10601 10597 10593 10587 10581 10575 10570 10565 10560 10554 10549 10544 10539 10533 10528 10523 10519 10513 10508 10503 10500 10495 10492 10489 10487 10487 10487 10488 10488 10488 10487 10487 10486 10486 10487 10487 10486 10486 10485 10485 10484 10484 10483 10483 10482 10481 10478 10476 10475 10474 10472 10471 10469 10465 10461 10458 10455 10452 10447 10442 10439 10436 10432 10428 10425 10421
10629 10630 10630 10631 10630 10630 10630 10629 10627 10625 10624 10623 10621 10619 10618 10618 10617 10615 10613 10611 10608 10604 10601 10597 10592 10586 10581 10575 10568 10562 10557 10552 10547 10542 10537 10531 10526 10522 10517 10512 10507 10503 10498 10495 10492 10489 10487 10487 10487 10487 10487 10487 10486 10485 10484 10484 10485 10485 10484 10483 10483 10483 10482 10482 10481 10480 10479 10479 10476 10473 10472 10471 10470 10469 10466 10462 10457 10454 10451 10448 10443 10439 10436 10433 10429 10426 10422 10418
10625 10626 10627 10627 10627 10626 10626 10626 10625 10624 10622 10620 10619 10617 10615 10615 10614 10612 10610 10609 10606 10602 10599 10596 10591 10586 10580 10575 10568 10561 10555 10550 10545 10540 10535 10530 10525 10520 10515 10510 10506 10502 10498 10495 10492 10489 10488 10487 10487 10486 10486 10486 10485 10483 10483 10482 10482 10482 10482 10481 10481 10481 10480 10480 10479 10478 10477 10476 10475 10473 10470 10468 10467 10466 10463 10459 10454 10449 10446 10443 10440 10436 10433 10429 10425 10422 10418 10415
10621 10622 10623 10624 10624 10623 10623 10622 10621 10621 10620 10618 10617 10615 10613 10612 10611 10610 10607 10606 10604 10601 10598 10593 10589 10584 10580 10574 10569 10562 10555 10549 10544 10539 10534 10529 10523 10518 10513 10508 10504 10501 10498 10495 10491 10489 10487 10486 10485 10485 10485 10484 10483 10482 10481 10481 10480 10480 10480 10479 10479 10478 10478 10478 10477 10476 10474 10472 10471 10471 10469 10466 10464 10463 10461 10457 10452 10446 10442 10439 10435 10431 10428 10425 10421 10417 10413 10409
10617 10618 10619 10619 10620 10619 10619 10619 10617 10617 10616 10615 10614 10612 10611 10609 10608 10607 10604 10602 10600 10598 10595 10591 10587 10582 10577 10572 10567 10561 10555 10549 10544 10539 10534 10528 10522 10517 10513 10508 10503 10498 10496 10494 10491 10488 10486 10485 10484 10483 10483 10482 10482 10481 10480 10479 10478 10478 10477 10477 10477 10476 10476 10475 10475 10474 10471 10469 10468 10468 10467 10464 10462 10460 10459 10455 10451 10446 10441 10437 10431 10426 10422 10418 10414 10409 10406 10402
10612 10614 10615 10616 10616 10616 10615 10614 10613 10613 10612 10611 10611 10610 10609 10607 10606 10604 10602 10600 10598 10596 10593 10589 10585 10580 10575 10570 10565 10560 10555 10549 10544 10539 10535 10529 10523 10517 10512 10507 10502 10498 10495 10493 10491 10488 10485 10483 10482 10481 10481 10480 10480 10479 10478 10477 10476 10475 10475 10475 10474 10474 10473 10473 10472 10471 10469 10467 10465 10463 10463 10462 10459 10458 10457 10454 10450 10445 10440 10435 10430 10425 10420 10415 10409 10404 10400 10397
10608 10609 10611 10613 10614 10613 10612 10611 10611 10610 10609 10608 10608 10607 10606 10605 10604 10602 10601 10599 10597 10594 10591 10587 10584 10580 10574 10569 10563 10559 10554 10548 10543 10538 10533 10529 10523 10518 10513 10508 10504 10500 10495 10492 10490 10488 10485 10482 10480 10479 10478 10477 10477 10476 10476 10475 10473 10473 10473 10473 10472 10471 10471 10470 10470 10468 10467 10466 10463 10461 10459 10458 10457 10455 10454 10452 10448 10443 10439 10433 10427 10422 10417 10411 10405 10400 10396 10393
10604 10605 10607 10608 10610 10610 10610 10609 10609 10608 10607 10606 10606 10605 10603 10602 10602 10600 10598 10596 10594 10591 10589 10586 10582 10578 10573 10568 10563 10557 10552 10547 10542 10536 10531 10526 10522 10517 10513 10509 10505 10501 10496 10492 10489 10486 10484 10481 10478 10476 10475 10474 10474 10474 10473 10472 10471 10471 10470 10470 10470 10469 10468 10468 10467 10466 10465 10464 10462 10459 10457 10455 10454 10452 10451 10449 10445 10440 10435 10428 10422 10417 10412 10406 10400 10395 10392 10390
10599 10601 10603 10604 10606 10607 10607 10606 10606 10606 10604 10604 10603 10603 10601 10600 10599 10598 10595 10593 10592 10590 10587 10584 10581 10577 10572 10567 10563 10557 10551 10546 10541 10535 10530 10524 10520 10515 10511 10507 10504 10500 10496 10492 10488 10485 10483 10480 10477 10474 10472 10471 10471 10471 10470 10470 10469 10468 10468 10467 10467 10466 10466 10465 10464 10463 10462 10461 10459 10458 10455 10453 10450 10447 10445 10444 10442 10437 10431 10424 10417 10412 10408 10402 10396 10391 10388 10386
10595 10596 10599 10601 10601 10602 10603 10602 10602 10602 10601 10600 10601 10600 10599 10597 10596 10595 10594 10591 10590 10588 10586 10584 10580 10577 10572 10567 10562 10557 10552 10546 10541 10536 10530 10525 10520 10515 10510 10506 10502 10499 10496 10492 10488 10484 10481 10478 10475 10472 10470 10469 10468 10468 10468 10468 10467 10466 10466 10465 10465 10464 10464 10462 10461 10460 10459 10458 10456 10455 10453 10451 10448 10444 10441 10440 10439 10434 10428 10422 10416 10410 10405 10400 10395 10390 10386 10383
10591 10592 10595 10597 10598 10598 10599 10598 10599 10599 10598 10597 10597 10597 10596 10595 10593 10592 10591 10589 10588 10587 10585 10582 10579 10575 10571 10566 10561 10556 10551 10546 10540 10535 10530 10525 10520 10515 10511 10506 10503 10499 10496 10492 10488 10484 10480 10477 10474 10471 10468 10467 10466 10466 10466 10466 10466 10465 10464 10463 10463 10462 10461 10460 10459 10458 10457 10456 10454 10453 10451 10449 10447 10444 10441 10438 10435 10430 10425 10420 10416 10410 10404 10398 10394 10389 10385 10381